Погода в Болчарах

Россия / Ханты-Мансийский автономный округ - Югра     59°48′51″N   68°48′42″E
темп.,
°C
ветер,
м/с
пор.,
м/с
влажн.,
%
обл.,
%
осадки,
мм/ч
давл.,
гПа
погр.,
м
23 сентября, чт
чт2323:00+2с239165 0.1 102574
02:000ссз239352 0.0 102562
05:000ссз249722 0.0 102677
08:00+3сз258623 0.0 1026261
11:00+5зсз3479100 0.0 1026583
14:00+6з3583100 0.0 1026615
17:00+8зюз357590 0.1 1025129
20:00+5зюз3588100 0.0 102594
24 сентября, пт
пт2423:00+5з348990 0.0 102565
02:00+3зсз3593100 0.0 102584
05:00+3зсз2495100 0.0 102588
08:00+4зсз258923 0.0 1025188
11:00+9сз35606 0.0 1025752
14:00+11ссз45495 0.0 10251162
17:00+9с35615 0.0 1025201
20:00+4всв34865 0.0 102773
25 сентября, сб
сб2523:00+2в11855 0.0 102710
02:00+1ссз22845 0.0 102712
05:00+1всв22915 0.0 102826
08:00+3с2581100 0.0 1028204
11:00+7св455817 0.0 10281246
14:00+8св44475 0.0 10281351
17:00+7св36555 0.0 1028450
20:00+2св37765 0.0 1030117
26 сентября, вс
вс2623:00+1св35850 0.0 1030108
02:00−1всв35915 0.0 1031108
05:00−2всв36925 0.0 1032135
08:00+1св38765 0.0 1033301
11:00+5всв46585 0.0 1032942
14:00+7всв455233 0.0 10321318
17:00+6в47626 0.0 1033580
20:000в378627 0.0 1034135
27 сентября, пн
пн2723:00+2в247188 0.0 103475
02:00+3всв2564100 0.0 1034122
05:00+3св3666100 0.0 1035150
08:00+2св488121 0.0 1035279
11:00+6св45628 0.0 1035901
14:00+6св4562100 0.0 10341230
17:00+5св4773100 0.0 1035504
20:00+4св3877100 0.0 1036369